owner,sensor,date,latitude,longitude,vertical_datum,sea_water_practical_salinity,qcFlag 
SCCF RECON,ioos:station:SCCF:18:1,2019-01-01T05:00:00Z,26.6955,-81.8138,1.83,2.79,1111122 
SCCF RECON,ioos:station:SCCF:18:1,2019-01-01T06:00:00Z,26.6955,-81.8138,1.82,2.37,1111122 
SCCF RECON,ioos:station:SCCF:18:1,2019-01-01T07:00:00Z,26.6955,-81.8138,1.75,2.1,1111122 
SCCF RECON,ioos:station:SCCF:18:1,2019-01-01T08:00:00Z,26.6955,-81.8138,1.66,2.09,1111122 
SCCF RECON,ioos:station:SCCF:18:1,2019-01-01T09:00:00Z,26.6955,-81.8138,1.6,2.46,1111122 
SCCF RECON,ioos:station:SCCF:18:1,2019-01-01T10:00:00Z,26.6955,-81.8138,1.55,2.1,1111122 
SCCF RECON,ioos:station:SCCF:18:1,2019-01-01T11:00:00Z,26.6955,-81.8138,1.5,2.17,1111122 
SCCF RECON,ioos:station:SCCF:18:1,2019-01-01T12:00:00Z,26.6955,-81.8138,1.449,2.04,1111122 
SCCF RECON,ioos:station:SCCF:18:1,2019-01-01T13:00:00Z,26.6955,-81.8138,1.4,2.11,1111122 
SCCF RECON,ioos:station:SCCF:18:1,2019-01-01T14:00:00Z,26.6955,-81.8138,1.409,2.03,1111122 
SCCF RECON,ioos:station:SCCF:18:1,2019-01-01T15:00:00Z,26.6955,-81.8138,1.441,2.12,1111122 
SCCF RECON,ioos:station:SCCF:18:1,2019-01-01T16:00:00Z,26.6955,-81.8138,1.5,2.15,1111122 
SCCF RECON,ioos:station:SCCF:18:1,2019-01-01T17:00:00Z,26.6955,-81.8138,1.548,2.22,1111122 
SCCF RECON,ioos:station:SCCF:18:1,2019-01-01T18:00:00Z,26.6955,-81.8138,1.58,2.13,1111122 
SCCF RECON,ioos:station:SCCF:18:1,2019-01-01T19:00:00Z,26.6955,-81.8138,1.603,2.39,1111122 
SCCF RECON,ioos:station:SCCF:18:1,2019-01-01T20:00:00Z,26.6955,-81.8138,1.61,2.16,1111122 
SCCF RECON,ioos:station:SCCF:18:1,2019-01-01T21:00:00Z,26.6955,-81.8138,1.59,2.37,1111122 
SCCF RECON,ioos:station:SCCF:18:1,2019-01-01T22:00:00Z,26.6955,-81.8138,1.549,2.38,1111122 
SCCF RECON,ioos:station:SCCF:18:1,2019-01-01T23:00:00Z,26.6955,-81.8138,1.5,2.26,1111122 
SCCF RECON,ioos:station:SCCF:18:1,2019-01-02T05:00:00Z,26.6955,-81.8138,1.74,2.76,1111122 
SCCF RECON,ioos:station:SCCF:18:1,2019-01-02T06:00:00Z,26.6955,-81.8138,1.763,3.06,1111122 
SCCF RECON,ioos:station:SCCF:18:1,2019-01-02T07:00:00Z,26.6955,-81.8138,1.73,2.29,1111122 
SCCF RECON,ioos:station:SCCF:18:1,2019-01-02T08:00:00Z,26.6955,-81.8138,1.64,2.08,1111122 
SCCF RECON,ioos:station:SCCF:18:1,2019-01-02T09:00:00Z,26.6955,-81.8138,1.558,2.04,1111122 
SCCF RECON,ioos:station:SCCF:18:1,2019-01-02T10:00:00Z,26.6955,-81.8138,1.5,2.57,1111122 
SCCF RECON,ioos:station:SCCF:18:1,2019-01-02T11:00:00Z,26.6955,-81.8138,1.46,2.24,1111122 
SCCF RECON,ioos:station:SCCF:18:1,2019-01-02T12:00:00Z,26.6955,-81.8138,1.42,2.12,1111122 
SCCF RECON,ioos:station:SCCF:18:1,2019-01-02T13:00:00Z,26.6955,-81.8138,1.37,2.16,1111122 
SCCF RECON,ioos:station:SCCF:18:1,2019-01-02T14:00:00Z,26.6955,-81.8138,1.34,2.07,1111122 
SCCF RECON,ioos:station:SCCF:18:1,2019-01-02T15:00:00Z,26.6955,-81.8138,1.331,2.24,1111122 
SCCF RECON,ioos:station:SCCF:18:1,2019-01-02T16:00:00Z,26.6955,-81.8138,1.36,2.3,1111122 
SCCF RECON,ioos:station:SCCF:18:1,2019-01-02T17:00:00Z,26.6955,-81.8138,1.41,2.52,1111122 
SCCF RECON,ioos:station:SCCF:18:1,2019-01-02T18:00:00Z,26.6955,-81.8138,1.462,2.43,1111122 
SCCF RECON,ioos:station:SCCF:18:1,2019-01-02T19:00:00Z,26.6955,-81.8138,1.504,2.8,1111122 
SCCF RECON,ioos:station:SCCF:18:1,2019-01-02T20:00:00Z,26.6955,-81.8138,1.533,3.08,1111122 
SCCF RECON,ioos:station:SCCF:18:1,2019-01-02T21:00:00Z,26.6955,-81.8138,1.529,2.51,1111122 
SCCF RECON,ioos:station:SCCF:18:1,2019-01-02T22:00:00Z,26.6955,-81.8138,1.527,2.5,1111122 
SCCF RECON,ioos:station:SCCF:18:1,2019-01-02T23:00:00Z,26.6955,-81.8138,1.54,2.57,1111122 
SCCF RECON,ioos:station:SCCF:18:1,2019-01-03T05:00:00Z,26.6955,-81.8138,1.743,3.45,1111122 
SCCF RECON,ioos:station:SCCF:18:1,2019-01-03T06:00:00Z,26.6955,-81.8138,1.786,3.63,1111122 
SCCF RECON,ioos:station:SCCF:18:1,2019-01-03T07:00:00Z,26.6955,-81.8138,1.79,3.26,1111122 
SCCF RECON,ioos:station:SCCF:18:1,2019-01-03T08:00:00Z,26.6955,-81.8138,1.72,2.54,1111122 
SCCF RECON,ioos:station:SCCF:18:1,2019-01-03T09:00:00Z,26.6955,-81.8138,1.632,2.36,1111122 
SCCF RECON,ioos:station:SCCF:18:1,2019-01-03T10:00:00Z,26.6955,-81.8138,1.56,2.45,1111122 
SCCF RECON,ioos:station:SCCF:18:1,2019-01-03T11:00:00Z,26.6955,-81.8138,1.51,2.46,1111122 
SCCF RECON,ioos:station:SCCF:18:1,2019-01-03T12:00:00Z,26.6955,-81.8138,1.47,2.43,1111122 
SCCF RECON,ioos:station:SCCF:18:1,2019-01-03T13:00:00Z,26.6955,-81.8138,1.41,2.42,1111122 
SCCF RECON,ioos:station:SCCF:18:1,2019-01-03T14:00:00Z,26.6955,-81.8138,1.35,2.39,1111122 
SCCF RECON,ioos:station:SCCF:18:1,2019-01-03T15:00:00Z,26.6955,-81.8138,1.33,3.17,1111122 
SCCF RECON,ioos:station:SCCF:18:1,2019-01-03T16:00:00Z,26.6955,-81.8138,1.34,2.42,1111122 
SCCF RECON,ioos:station:SCCF:18:1,2019-01-03T17:00:00Z,26.6955,-81.8138,1.378,2.66,1111122 
SCCF RECON,ioos:station:SCCF:18:1,2019-01-03T18:00:00Z,26.6955,-81.8138,1.448,2.96,1111122 
SCCF RECON,ioos:station:SCCF:18:1,2019-01-03T19:00:00Z,26.6955,-81.8138,1.503,3.31,1111122 
SCCF RECON,ioos:station:SCCF:18:1,2019-01-03T20:00:00Z,26.6955,-81.8138,1.54,3.39,1111122 
SCCF RECON,ioos:station:SCCF:18:1,2019-01-03T21:00:00Z,26.6955,-81.8138,1.559,3.46,1111122 
SCCF RECON,ioos:station:SCCF:18:1,2019-01-03T22:00:00Z,26.6955,-81.8138,1.57,3.53,1111122 
SCCF RECON,ioos:station:SCCF:18:1,2019-01-03T23:00:00Z,26.6955,-81.8138,1.549,3.5,1111122 
SCCF RECON,ioos:station:SCCF:18:1,2019-01-04T05:00:00Z,26.6955,-81.8138,1.67,4.28,1111122 
SCCF RECON,ioos:station:SCCF:18:1,2019-01-04T06:00:00Z,26.6955,-81.8138,1.709,4.31,1111122 
SCCF RECON,ioos:station:SCCF:18:1,2019-01-04T07:00:00Z,26.6955,-81.8138,1.74,4.23,1111122 
SCCF RECON,ioos:station:SCCF:18:1,2019-01-04T08:00:00Z,26.6955,-81.8138,1.74,4.12,1111122 
SCCF RECON,ioos:station:SCCF:18:1,2019-01-04T09:00:00Z,26.6955,-81.8138,1.66,3.45,1111122 
SCCF RECON,ioos:station:SCCF:18:1,2019-01-04T10:00:00Z,26.6955,-81.8138,1.58,3.29,1111122 
SCCF RECON,ioos:station:SCCF:18:1,2019-01-04T11:00:00Z,26.6955,-81.8138,1.52,3.51,1111122 
SCCF RECON,ioos:station:SCCF:18:1,2019-01-04T12:00:00Z,26.6955,-81.8138,1.471,3.16,1111122 
SCCF RECON,ioos:station:SCCF:18:1,2019-01-04T13:00:00Z,26.6955,-81.8138,1.435,3.03,1111122 
SCCF RECON,ioos:station:SCCF:18:1,2019-01-04T14:00:00Z,26.6955,-81.8138,1.38,2.9,1111122 
SCCF RECON,ioos:station:SCCF:18:1,2019-01-04T15:00:00Z,26.6955,-81.8138,1.341,2.88,1111122 
SCCF RECON,ioos:station:SCCF:18:1,2019-01-04T16:00:00Z,26.6955,-81.8138,1.35,3.07,1111122 
SCCF RECON,ioos:station:SCCF:18:1,2019-01-04T17:00:00Z,26.6955,-81.8138,1.436,3.6,1111122 
SCCF RECON,ioos:station:SCCF:18:1,2019-01-04T18:00:00Z,26.6955,-81.8138,1.52,3.61,1111122 
SCCF RECON,ioos:station:SCCF:18:1,2019-01-04T19:00:00Z,26.6955,-81.8138,1.594,3.52,1111122 
SCCF RECON,ioos:station:SCCF:18:1,2019-01-04T20:00:00Z,26.6955,-81.8138,1.651,3.5,1111122 
SCCF RECON,ioos:station:SCCF:18:1,2019-01-04T21:00:00Z,26.6955,-81.8138,1.692,3.62,1111122 
SCCF RECON,ioos:station:SCCF:18:1,2019-01-04T22:00:00Z,26.6955,-81.8138,1.724,4.01,1111122 
SCCF RECON,ioos:station:SCCF:18:1,2019-01-04T23:00:00Z,26.6955,-81.8138,1.728,3.93,1111122 
SCCF RECON,ioos:station:SCCF:18:1,2019-01-05T05:00:00Z,26.6955,-81.8138,1.75,4.17,1111122 
SCCF RECON,ioos:station:SCCF:18:1,2019-01-05T06:00:00Z,26.6955,-81.8138,1.8,4.34,1111122 
SCCF RECON,ioos:station:SCCF:18:1,2019-01-05T07:00:00Z,26.6955,-81.8138,1.83,4.32,1111122 
SCCF RECON,ioos:station:SCCF:18:1,2019-01-05T08:00:00Z,26.6955,-81.8138,1.83,4.28,1111122 
SCCF RECON,ioos:station:SCCF:18:1,2019-01-05T09:00:00Z,26.6955,-81.8138,1.77,4.04,1111122 
SCCF RECON,ioos:station:SCCF:18:1,2019-01-05T10:00:00Z,26.6955,-81.8138,1.69,3.71,1111122 
SCCF RECON,ioos:station:SCCF:18:1,2019-01-05T11:00:00Z,26.6955,-81.8138,1.62,3.55,1111122 
SCCF RECON,ioos:station:SCCF:18:1,2019-01-05T12:00:00Z,26.6955,-81.8138,1.57,3.44,1111122 
SCCF RECON,ioos:station:SCCF:18:1,2019-01-05T13:00:00Z,26.6955,-81.8138,1.52,3.34,1111122 
SCCF RECON,ioos:station:SCCF:18:1,2019-01-05T14:00:00Z,26.6955,-81.8138,1.47,3.25,1111122 
SCCF RECON,ioos:station:SCCF:18:1,2019-01-05T15:00:00Z,26.6955,-81.8138,1.424,3.19,1111122 
SCCF RECON,ioos:station:SCCF:18:1,2019-01-05T16:00:00Z,26.6955,-81.8138,1.397,3.22,1111122 
SCCF RECON,ioos:station:SCCF:18:1,2019-01-05T17:00:00Z,26.6955,-81.8138,1.4,3.06,1111122 
SCCF RECON,ioos:station:SCCF:18:1,2019-01-05T18:00:00Z,26.6955,-81.8138,1.449,3.03,1111122 
SCCF RECON,ioos:station:SCCF:18:1,2019-01-05T19:00:00Z,26.6955,-81.8138,1.496,3.25,1111122 
SCCF RECON,ioos:station:SCCF:18:1,2019-01-05T20:00:00Z,26.6955,-81.8138,1.555,3.37,1111122 
SCCF RECON,ioos:station:SCCF:18:1,2019-01-05T21:00:00Z,26.6955,-81.8138,1.59,3.46,1111122 
SCCF RECON,ioos:station:SCCF:18:1,2019-01-05T22:00:00Z,26.6955,-81.8138,1.59,3.39,1111122 
SCCF RECON,ioos:station:SCCF:18:1,2019-01-05T23:00:00Z,26.6955,-81.8138,1.548,3.28,1111122 
SCCF RECON,ioos:station:SCCF:18:1,2019-01-06T05:00:00Z,26.6955,-81.8138,1.53,3.18,1111122 
SCCF RECON,ioos:station:SCCF:18:1,2019-01-06T06:00:00Z,26.6955,-81.8138,1.61,3.2,1111122 
SCCF RECON,ioos:station:SCCF:18:1,2019-01-06T07:00:00Z,26.6955,-81.8138,1.66,3.24,1111122 
SCCF RECON,ioos:station:SCCF:18:1,2019-01-06T08:00:00Z,26.6955,-81.8138,1.68,3.19,1111122 
SCCF RECON,ioos:station:SCCF:18:1,2019-01-06T09:00:00Z,26.6955,-81.8138,1.65,3.05,1111122 
SCCF RECON,ioos:station:SCCF:18:1,2019-01-06T10:00:00Z,26.6955,-81.8138,1.579,2.94,1111122 
SCCF RECON,ioos:station:SCCF:18:1,2019-01-06T11:00:00Z,26.6955,-81.8138,1.51,2.94,1111122 
SCCF RECON,ioos:station:SCCF:18:1,2019-01-06T12:00:00Z,26.6955,-81.8138,1.47,2.96,1111122 
SCCF RECON,ioos:station:SCCF:18:1,2019-01-06T13:00:00Z,26.6955,-81.8138,1.43,2.87,1111122 
SCCF RECON,ioos:station:SCCF:18:1,2019-01-06T14:00:00Z,26.6955,-81.8138,1.38,2.86,1111122 
SCCF RECON,ioos:station:SCCF:18:1,2019-01-06T15:00:00Z,26.6955,-81.8138,1.32,2.85,1111122 
SCCF RECON,ioos:station:SCCF:18:1,2019-01-06T16:00:00Z,26.6955,-81.8138,1.26,2.84,1111122 
SCCF RECON,ioos:station:SCCF:18:1,2019-01-06T17:00:00Z,26.6955,-81.8138,1.225,2.77,1111122 
SCCF RECON,ioos:station:SCCF:18:1,2019-01-06T18:00:00Z,26.6955,-81.8138,1.21,2.7,1111122 
SCCF RECON,ioos:station:SCCF:18:1,2019-01-06T19:00:00Z,26.6955,-81.8138,1.251,2.76,1111122 
SCCF RECON,ioos:station:SCCF:18:1,2019-01-06T20:00:00Z,26.6955,-81.8138,1.324,2.85,1111122 
SCCF RECON,ioos:station:SCCF:18:1,2019-01-06T21:00:00Z,26.6955,-81.8138,1.39,2.88,1111122 
SCCF RECON,ioos:station:SCCF:18:1,2019-01-06T22:00:00Z,26.6955,-81.8138,1.421,2.8,1111122 
SCCF RECON,ioos:station:SCCF:18:1,2019-01-06T23:00:00Z,26.6955,-81.8138,1.45,2.96,1111122 
SCCF RECON,ioos:station:SCCF:18:1,2019-01-07T05:00:00Z,26.6955,-81.8138,1.5,3.01,1111122 
SCCF RECON,ioos:station:SCCF:18:1,2019-01-07T06:00:00Z,26.6955,-81.8138,1.57,3.02,1111122 
SCCF RECON,ioos:station:SCCF:18:1,2019-01-07T07:00:00Z,26.6955,-81.8138,1.629,3.06,1111122 
SCCF RECON,ioos:station:SCCF:18:1,2019-01-07T09:00:00Z,26.6955,-81.8138,1.69,2.92,1111122 
SCCF RECON,ioos:station:SCCF:18:1,2019-01-07T10:00:00Z,26.6955,-81.8138,1.66,2.95,1111122 
SCCF RECON,ioos:station:SCCF:18:1,2019-01-07T11:00:00Z,26.6955,-81.8138,1.59,2.49,1111122 
SCCF RECON,ioos:station:SCCF:18:1,2019-01-07T12:00:00Z,26.6955,-81.8138,1.524,2.49,1111122 
SCCF RECON,ioos:station:SCCF:18:1,2019-01-07T13:00:00Z,26.6955,-81.8138,1.48,2.5,1111122 
SCCF RECON,ioos:station:SCCF:18:1,2019-01-07T14:00:00Z,26.6955,-81.8138,1.435,2.32,1111122 
SCCF RECON,ioos:station:SCCF:18:1,2019-01-07T15:00:00Z,26.6955,-81.8138,1.39,2.31,1111122 
SCCF RECON,ioos:station:SCCF:18:1,2019-01-07T16:00:00Z,26.6955,-81.8138,1.33,2.35,1111122 
SCCF RECON,ioos:station:SCCF:18:1,2019-01-07T17:00:00Z,26.6955,-81.8138,1.287,2.29,1111122 
SCCF RECON,ioos:station:SCCF:18:1,2019-01-07T18:00:00Z,26.6955,-81.8138,1.29,2.22,1111122 
SCCF RECON,ioos:station:SCCF:18:1,2019-01-07T19:00:00Z,26.6955,-81.8138,1.36,2.68,1111122 
SCCF RECON,ioos:station:SCCF:18:1,2019-01-07T20:00:00Z,26.6955,-81.8138,1.442,2.68,1111122 
SCCF RECON,ioos:station:SCCF:18:1,2019-01-07T21:00:00Z,26.6955,-81.8138,1.495,2.55,1111122 
SCCF RECON,ioos:station:SCCF:18:1,2019-01-07T22:00:00Z,26.6955,-81.8138,1.53,2.69,1111122 
SCCF RECON,ioos:station:SCCF:18:1,2019-01-07T23:00:00Z,26.6955,-81.8138,1.565,2.71,1111122 
SCCF RECON,ioos:station:SCCF:18:1,2019-01-08T05:00:00Z,26.6955,-81.8138,1.468,1.98,1111122 
SCCF RECON,ioos:station:SCCF:18:1,2019-01-08T06:00:00Z,26.6955,-81.8138,1.551,2.64,1111122 
SCCF RECON,ioos:station:SCCF:18:1,2019-01-08T07:00:00Z,26.6955,-81.8138,1.64,2.74,1111122 
SCCF RECON,ioos:station:SCCF:18:1,2019-01-08T08:00:00Z,26.6955,-81.8138,1.681,2.72,1111122 
SCCF RECON,ioos:station:SCCF:18:1,2019-01-08T09:00:00Z,26.6955,-81.8138,1.708,2.91,1111122 
SCCF RECON,ioos:station:SCCF:18:1,2019-01-08T10:00:00Z,26.6955,-81.8138,1.71,2.36,1111122 
SCCF RECON,ioos:station:SCCF:18:1,2019-01-08T11:00:00Z,26.6955,-81.8138,1.659,2.14,1111122 
SCCF RECON,ioos:station:SCCF:18:1,2019-01-08T12:00:00Z,26.6955,-81.8138,1.58,2.0,1111122 
SCCF RECON,ioos:station:SCCF:18:1,2019-01-08T13:00:00Z,26.6955,-81.8138,1.522,2.17,1111122 
SCCF RECON,ioos:station:SCCF:18:1,2019-01-08T14:00:00Z,26.6955,-81.8138,1.48,2.04,1111122 
SCCF RECON,ioos:station:SCCF:18:1,2019-01-08T15:00:00Z,26.6955,-81.8138,1.44,1.94,1111122 
SCCF RECON,ioos:station:SCCF:18:1,2019-01-08T16:00:00Z,26.6955,-81.8138,1.38,1.89,1111122 
SCCF RECON,ioos:station:SCCF:18:1,2019-01-08T17:00:00Z,26.6955,-81.8138,1.33,1.83,1111122 
SCCF RECON,ioos:station:SCCF:18:1,2019-01-08T18:00:00Z,26.6955,-81.8138,1.315,1.8,1111122 
SCCF RECON,ioos:station:SCCF:18:1,2019-01-08T19:00:00Z,26.6955,-81.8138,1.37,2.24,1111122 
SCCF RECON,ioos:station:SCCF:18:1,2019-01-08T20:00:00Z,26.6955,-81.8138,1.455,2.56,1111122 
SCCF RECON,ioos:station:SCCF:18:1,2019-01-08T21:00:00Z,26.6955,-81.8138,1.519,2.24,1111122 
SCCF RECON,ioos:station:SCCF:18:1,2019-01-08T22:00:00Z,26.6955,-81.8138,1.56,2.71,1111122 
SCCF RECON,ioos:station:SCCF:18:1,2019-01-08T23:00:00Z,26.6955,-81.8138,1.622,3.07,1111122 
SCCF RECON,ioos:station:SCCF:18:1,2019-01-09T05:00:00Z,26.6955,-81.8138,1.481,2.05,1111122 
SCCF RECON,ioos:station:SCCF:18:1,2019-01-09T06:00:00Z,26.6955,-81.8138,1.56,2.6,1111122 
SCCF RECON,ioos:station:SCCF:18:1,2019-01-09T07:00:00Z,26.6955,-81.8138,1.641,2.97,1111122 
SCCF RECON,ioos:station:SCCF:18:1,2019-01-09T08:00:00Z,26.6955,-81.8138,1.7,3.05,1111122 
SCCF RECON,ioos:station:SCCF:18:1,2019-01-09T09:00:00Z,26.6955,-81.8138,1.718,3.09,1111122 
SCCF RECON,ioos:station:SCCF:18:1,2019-01-09T10:00:00Z,26.6955,-81.8138,1.73,2.73,1111122 
SCCF RECON,ioos:station:SCCF:18:1,2019-01-09T11:00:00Z,26.6955,-81.8138,1.69,2.7,1111122 
SCCF RECON,ioos:station:SCCF:18:1,2019-01-09T12:00:00Z,26.6955,-81.8138,1.61,1.98,1111122 
SCCF RECON,ioos:station:SCCF:18:1,2019-01-09T13:00:00Z,26.6955,-81.8138,1.54,2.3,1111122 
SCCF RECON,ioos:station:SCCF:18:1,2019-01-09T14:00:00Z,26.6955,-81.8138,1.5,2.58,1111122 
SCCF RECON,ioos:station:SCCF:18:1,2019-01-09T15:00:00Z,26.6955,-81.8138,1.449,1.94,1111122 
SCCF RECON,ioos:station:SCCF:18:1,2019-01-09T18:00:00Z,26.6955,-81.8138,1.261,1.79,1111122 
SCCF RECON,ioos:station:SCCF:18:1,2019-01-09T19:00:00Z,26.6955,-81.8138,1.243,1.73,1111122 
SCCF RECON,ioos:station:SCCF:18:1,2019-01-09T20:00:00Z,26.6955,-81.8138,1.278,1.96,1111122 
SCCF RECON,ioos:station:SCCF:18:1,2019-01-09T21:00:00Z,26.6955,-81.8138,1.36,2.67,1111122 
SCCF RECON,ioos:station:SCCF:18:1,2019-01-09T22:00:00Z,26.6955,-81.8138,1.44,3.01,1111122 
SCCF RECON,ioos:station:SCCF:18:1,2019-01-09T23:00:00Z,26.6955,-81.8138,1.47,2.49,1111122 
SCCF RECON,ioos:station:SCCF:18:1,2019-01-10T05:00:00Z,26.6955,-81.8138,1.32,1.74,1111122 
SCCF RECON,ioos:station:SCCF:18:1,2019-01-10T06:00:00Z,26.6955,-81.8138,1.363,1.75,1111122 
SCCF RECON,ioos:station:SCCF:18:1,2019-01-10T07:00:00Z,26.6955,-81.8138,1.43,2.65,1111122 
SCCF RECON,ioos:station:SCCF:18:1,2019-01-10T08:00:00Z,26.6955,-81.8138,1.49,2.43,1111122 
SCCF RECON,ioos:station:SCCF:18:1,2019-01-10T09:00:00Z,26.6955,-81.8138,1.517,2.54,1111122 
SCCF RECON,ioos:station:SCCF:18:1,2019-01-10T10:00:00Z,26.6955,-81.8138,1.53,2.57,1111122 
SCCF RECON,ioos:station:SCCF:18:1,2019-01-10T11:00:00Z,26.6955,-81.8138,1.52,2.25,1111122 
SCCF RECON,ioos:station:SCCF:18:1,2019-01-10T12:00:00Z,26.6955,-81.8138,1.47,1.91,1111122 
SCCF RECON,ioos:station:SCCF:18:1,2019-01-10T13:00:00Z,26.6955,-81.8138,1.41,2.05,1111122 
SCCF RECON,ioos:station:SCCF:18:1,2019-01-10T14:00:00Z,26.6955,-81.8138,1.36,2.02,1111122 
SCCF RECON,ioos:station:SCCF:18:1,2019-01-10T15:00:00Z,26.6955,-81.8138,1.32,1.89,1111122 
SCCF RECON,ioos:station:SCCF:18:1,2019-01-10T16:00:00Z,26.6955,-81.8138,1.27,1.86,1111122 
SCCF RECON,ioos:station:SCCF:18:1,2019-01-10T17:00:00Z,26.6955,-81.8138,1.212,1.87,1111122 
SCCF RECON,ioos:station:SCCF:18:1,2019-01-10T18:00:00Z,26.6955,-81.8138,1.16,1.91,1111122 
SCCF RECON,ioos:station:SCCF:18:1,2019-01-10T19:00:00Z,26.6955,-81.8138,1.13,1.98,1111122 
SCCF RECON,ioos:station:SCCF:18:1,2019-01-10T23:00:00Z,26.6955,-81.8138,1.37,2.77,1111122 
SCCF RECON,ioos:station:SCCF:18:1,2019-01-11T05:00:00Z,26.6955,-81.8138,1.34,2.55,1111122 
SCCF RECON,ioos:station:SCCF:18:1,2019-01-11T06:00:00Z,26.6955,-81.8138,1.341,2.06,1111122 
SCCF RECON,ioos:station:SCCF:18:1,2019-01-11T07:00:00Z,26.6955,-81.8138,1.401,2.59,1111122 
SCCF RECON,ioos:station:SCCF:18:1,2019-01-11T08:00:00Z,26.6955,-81.8138,1.466,3.25,1111122 
SCCF RECON,ioos:station:SCCF:18:1,2019-01-11T09:00:00Z,26.6955,-81.8138,1.52,3.17,1111122 
SCCF RECON,ioos:station:SCCF:18:1,2019-01-11T10:00:00Z,26.6955,-81.8138,1.558,3.62,1111122 
SCCF RECON,ioos:station:SCCF:18:1,2019-01-11T11:00:00Z,26.6955,-81.8138,1.59,3.74,1111122 
SCCF RECON,ioos:station:SCCF:18:1,2019-01-11T12:00:00Z,26.6955,-81.8138,1.592,2.83,1111122 
SCCF RECON,ioos:station:SCCF:18:1,2019-01-11T13:00:00Z,26.6955,-81.8138,1.553,2.12,1111122 
SCCF RECON,ioos:station:SCCF:18:1,2019-01-11T14:00:00Z,26.6955,-81.8138,1.498,2.07,1111122 
SCCF RECON,ioos:station:SCCF:18:1,2019-01-11T15:00:00Z,26.6955,-81.8138,1.44,2.22,1111122 
SCCF RECON,ioos:station:SCCF:18:1,2019-01-11T17:00:00Z,26.6955,-81.8138,1.36,2.11,1111122 
SCCF RECON,ioos:station:SCCF:18:1,2019-01-11T18:00:00Z,26.6955,-81.8138,1.309,1.98,1111122 
SCCF RECON,ioos:station:SCCF:18:1,2019-01-11T20:00:00Z,26.6955,-81.8138,1.31,1.91,1111122 
SCCF RECON,ioos:station:SCCF:18:1,2019-01-11T22:00:00Z,26.6955,-81.8138,1.47,2.41,1111122 
SCCF RECON,ioos:station:SCCF:18:1,2019-01-12T05:00:00Z,26.6955,-81.8138,1.451,2.14,1111122 
SCCF RECON,ioos:station:SCCF:18:1,2019-01-12T06:00:00Z,26.6955,-81.8138,1.44,2.65,1111122 
SCCF RECON,ioos:station:SCCF:18:1,2019-01-12T07:00:00Z,26.6955,-81.8138,1.43,2.35,1111122 
SCCF RECON,ioos:station:SCCF:18:1,2019-01-12T08:00:00Z,26.6955,-81.8138,1.45,2.03,1111122 
SCCF RECON,ioos:station:SCCF:18:1,2019-01-12T09:00:00Z,26.6955,-81.8138,1.51,2.55,1111122 
SCCF RECON,ioos:station:SCCF:18:1,2019-01-12T10:00:00Z,26.6955,-81.8138,1.57,2.54,1111122 
SCCF RECON,ioos:station:SCCF:18:1,2019-01-12T11:00:00Z,26.6955,-81.8138,1.6,2.34,1111122 
SCCF RECON,ioos:station:SCCF:18:1,2019-01-12T12:00:00Z,26.6955,-81.8138,1.62,2.22,1111122 
SCCF RECON,ioos:station:SCCF:18:1,2019-01-12T13:00:00Z,26.6955,-81.8138,1.621,2.17,1111122 
SCCF RECON,ioos:station:SCCF:18:1,2019-01-12T14:00:00Z,26.6955,-81.8138,1.57,2.0,1111122 
SCCF RECON,ioos:station:SCCF:18:1,2019-01-12T15:00:00Z,26.6955,-81.8138,1.51,2.19,1111122 
SCCF RECON,ioos:station:SCCF:18:1,2019-01-12T16:00:00Z,26.6955,-81.8138,1.445,2.29,1111122 
SCCF RECON,ioos:station:SCCF:18:1,2019-01-12T17:00:00Z,26.6955,-81.8138,1.406,2.16,1111122 
SCCF RECON,ioos:station:SCCF:18:1,2019-01-12T18:00:00Z,26.6955,-81.8138,1.377,2.11,1111122 
SCCF RECON,ioos:station:SCCF:18:1,2019-01-12T19:00:00Z,26.6955,-81.8138,1.349,2.11,1111122 
SCCF RECON,ioos:station:SCCF:18:1,2019-01-12T20:00:00Z,26.6955,-81.8138,1.361,2.15,1111122 
SCCF RECON,ioos:station:SCCF:18:1,2019-01-12T21:00:00Z,26.6955,-81.8138,1.438,2.36,1111122 
SCCF RECON,ioos:station:SCCF:18:1,2019-01-12T22:00:00Z,26.6955,-81.8138,1.532,2.69,1111122 
SCCF RECON,ioos:station:SCCF:18:1,2019-01-13T05:00:00Z,26.6955,-81.8138,1.58,2.44,1111122 
SCCF RECON,ioos:station:SCCF:18:1,2019-01-13T06:00:00Z,26.6955,-81.8138,1.54,2.39,1111122 
SCCF RECON,ioos:station:SCCF:18:1,2019-01-13T07:00:00Z,26.6955,-81.8138,1.51,2.94,1111122 
SCCF RECON,ioos:station:SCCF:18:1,2019-01-13T08:00:00Z,26.6955,-81.8138,1.478,2.25,1111122 
SCCF RECON,ioos:station:SCCF:18:1,2019-01-13T09:00:00Z,26.6955,-81.8138,1.47,2.23,1111122 
SCCF RECON,ioos:station:SCCF:18:1,2019-01-13T10:00:00Z,26.6955,-81.8138,1.52,2.39,1111122 
SCCF RECON,ioos:station:SCCF:18:1,2019-01-13T11:00:00Z,26.6955,-81.8138,1.59,2.53,1111122 
SCCF RECON,ioos:station:SCCF:18:1,2019-01-13T12:00:00Z,26.6955,-81.8138,1.65,2.78,1111122 
SCCF RECON,ioos:station:SCCF:18:1,2019-01-13T13:00:00Z,26.6955,-81.8138,1.67,3.39,1111122 
SCCF RECON,ioos:station:SCCF:18:1,2019-01-13T14:00:00Z,26.6955,-81.8138,1.677,2.47,1111122 
SCCF RECON,ioos:station:SCCF:18:1,2019-01-13T15:00:00Z,26.6955,-81.8138,1.633,2.46,1111122 
SCCF RECON,ioos:station:SCCF:18:1,2019-01-13T16:00:00Z,26.6955,-81.8138,1.569,2.45,1111122 
SCCF RECON,ioos:station:SCCF:18:1,2019-01-13T17:00:00Z,26.6955,-81.8138,1.507,2.61,1111122 
SCCF RECON,ioos:station:SCCF:18:1,2019-01-13T18:00:00Z,26.6955,-81.8138,1.472,2.94,1111122 
SCCF RECON,ioos:station:SCCF:18:1,2019-01-13T19:00:00Z,26.6955,-81.8138,1.44,2.54,1111122 
SCCF RECON,ioos:station:SCCF:18:1,2019-01-13T20:00:00Z,26.6955,-81.8138,1.41,2.68,1111122 
SCCF RECON,ioos:station:SCCF:18:1,2019-01-13T21:00:00Z,26.6955,-81.8138,1.406,2.72,1111122 
SCCF RECON,ioos:station:SCCF:18:1,2019-01-13T22:00:00Z,26.6955,-81.8138,1.466,2.66,1111122 
SCCF RECON,ioos:station:SCCF:18:1,2019-01-14T05:00:00Z,26.6955,-81.8138,1.57,2.89,1111122 
SCCF RECON,ioos:station:SCCF:18:1,2019-01-14T06:00:00Z,26.6955,-81.8138,1.51,3.06,1111122 
SCCF RECON,ioos:station:SCCF:18:1,2019-01-14T07:00:00Z,26.6955,-81.8138,1.474,3.29,1111122 
SCCF RECON,ioos:station:SCCF:18:1,2019-01-14T08:00:00Z,26.6955,-81.8138,1.44,3.19,1111122 
SCCF RECON,ioos:station:SCCF:18:1,2019-01-14T09:00:00Z,26.6955,-81.8138,1.4,2.96,1111122 
SCCF RECON,ioos:station:SCCF:18:1,2019-01-14T10:00:00Z,26.6955,-81.8138,1.38,3.03,1111122 
SCCF RECON,ioos:station:SCCF:18:1,2019-01-14T11:00:00Z,26.6955,-81.8138,1.41,3.08,1111122 
SCCF RECON,ioos:station:SCCF:18:1,2019-01-14T12:00:00Z,26.6955,-81.8138,1.47,3.13,1111122 
SCCF RECON,ioos:station:SCCF:18:1,2019-01-14T13:00:00Z,26.6955,-81.8138,1.51,3.03,1111122 
SCCF RECON,ioos:station:SCCF:18:1,2019-01-14T14:00:00Z,26.6955,-81.8138,1.524,2.82,1111122 
SCCF RECON,ioos:station:SCCF:18:1,2019-01-14T15:00:00Z,26.6955,-81.8138,1.52,2.85,1111122 
SCCF RECON,ioos:station:SCCF:18:1,2019-01-14T16:00:00Z,26.6955,-81.8138,1.471,2.87,1111122 
SCCF RECON,ioos:station:SCCF:18:1,2019-01-14T17:00:00Z,26.6955,-81.8138,1.42,2.83,1111122 
SCCF RECON,ioos:station:SCCF:18:1,2019-01-14T18:00:00Z,26.6955,-81.8138,1.38,2.98,1111122 
SCCF RECON,ioos:station:SCCF:18:1,2019-01-14T19:00:00Z,26.6955,-81.8138,1.354,2.76,1111122 
SCCF RECON,ioos:station:SCCF:18:1,2019-01-14T20:00:00Z,26.6955,-81.8138,1.329,2.77,1111122 
SCCF RECON,ioos:station:SCCF:18:1,2019-01-14T21:00:00Z,26.6955,-81.8138,1.31,2.72,1111122 
SCCF RECON,ioos:station:SCCF:18:1,2019-01-14T22:00:00Z,26.6955,-81.8138,1.31,2.83,1111122 
SCCF RECON,ioos:station:SCCF:18:1,2019-01-15T05:00:00Z,26.6955,-81.8138,1.48,3.07,1111122 
SCCF RECON,ioos:station:SCCF:18:1,2019-01-15T06:00:00Z,26.6955,-81.8138,1.4,2.84,1111122 
SCCF RECON,ioos:station:SCCF:18:1,2019-01-15T07:00:00Z,26.6955,-81.8138,1.358,2.85,1111122 
SCCF RECON,ioos:station:SCCF:18:1,2019-01-15T08:00:00Z,26.6955,-81.8138,1.33,2.81,1111122 
SCCF RECON,ioos:station:SCCF:18:1,2019-01-15T09:00:00Z,26.6955,-81.8138,1.281,2.77,1111122 
SCCF RECON,ioos:station:SCCF:18:1,2019-01-15T10:00:00Z,26.6955,-81.8138,1.24,2.73,1111122 
SCCF RECON,ioos:station:SCCF:18:1,2019-01-15T11:00:00Z,26.6955,-81.8138,1.22,2.76,1111122 
SCCF RECON,ioos:station:SCCF:18:1,2019-01-15T12:00:00Z,26.6955,-81.8138,1.22,2.78,1111122 